[keps] orb12264.amsat
Ray Hoad
ray.hoad at mypbmail.com
Thu Sep 20 19:54:00 PDT 2012
SB KEPS @ AMSAT $ORB12264.O
Orbital Elements 12264.OSCAR
HR AMSAT ORBITAL ELEMENTS FOR OSCAR SATELLITES
FROM WA5QGD FORT WORTH,TX September 20, 2012
BID: ORB12264.O
TO ALL RADIO AMATEURS BT
Satellite: AO-07
Catalog number: 07530
Epoch time: 12264.59272424
Element set: 485
Inclination: 101.4097 deg
RA of node: 258.1445 deg
Eccentricity: 0.0012099
Arg of perigee: 094.8200 deg
Mean anomaly: 265.4259 deg
Mean motion: 12.53591471 rev/day
Decay rate: -2.7e-07 rev/day^2
Epoch rev: 73200
Checksum: 288
Satellite: FO-29
Catalog number: 24278
Epoch time: 12264.58114096
Element set: 936
Inclination: 098.5882 deg
RA of node: 352.7670 deg
Eccentricity: 0.0351012
Arg of perigee: 142.3073 deg
Mean anomaly: 220.3302 deg
Mean motion: 13.52989333 rev/day
Decay rate: 1.16e-06 rev/day^2
Epoch rev: 79485
Checksum: 312
Satellite: SO-33
Catalog number: 25509
Epoch time: 12263.87287313
Element set: 0325
Inclination: 031.4347 deg
RA of node: 157.8292 deg
Eccentricity: 0.0352674
Arg of perigee: 311.8232 deg
Mean anomaly: 045.2742 deg
Mean motion: 14.28811648 rev/day
Decay rate: 1.06e-06 rev/day^2
Epoch rev: 72620
Checksum: 294
Satellite: RS-22
Catalog number: 27939
Epoch time: 12264.54099526
Element set: 740
Inclination: 097.8046 deg
RA of node: 100.4444 deg
Eccentricity: 0.0013014
Arg of perigee: 327.9227 deg
Mean anomaly: 032.1183 deg
Mean motion: 14.64131813 rev/day
Decay rate: 3.83e-06 rev/day^2
Epoch rev: 47983
Checksum: 297
Satellite: VO-52
Catalog number: 28650
Epoch time: 12263.64630463
Element set: 0213
Inclination: 097.5902 deg
RA of node: 289.9610 deg
Eccentricity: 0.0027609
Arg of perigee: 090.2054 deg
Mean anomaly: 270.2328 deg
Mean motion: 14.83178198 rev/day
Decay rate: 1.026e-05 rev/day^2
Epoch rev: 39897
Checksum: 319
Satellite: HO-68
Catalog number: 36122
Epoch time: 12264.75666891
Element set: 846
Inclination: 100.3513 deg
RA of node: 322.1326 deg
Eccentricity: 0.0007098
Arg of perigee: 250.3514 deg
Mean anomaly: 109.6843 deg
Mean motion: 13.16297997 rev/day
Decay rate: -4.4e-07 rev/day^2
Epoch rev: 13296
Checksum: 311
/EX
SB KEPS @ AMSAT $ORB12264.D
Orbital Elements 12264.MICROS
HR AMSAT ORBITAL ELEMENTS FOR THE MICROSATS
FROM WA5QGD FORT WORTH,TX September 20, 2012
BID: ORB12264.D
TO ALL RADIO AMATEURS BT
Satellite: UO-11
Catalog number: 14781
Epoch time: 12263.74041042
Element set: 0986
Inclination: 097.9450 deg
RA of node: 322.3862 deg
Eccentricity: 0.0010185
Arg of perigee: 085.7684 deg
Mean anomaly: 274.4692 deg
Mean motion: 14.80560597 rev/day
Decay rate: 5.28e-06 rev/day^2
Epoch rev: 53392
Checksum: 321
Satellite: AO-16
Catalog number: 20439
Epoch time: 12264.80803619
Element set: 562
Inclination: 098.4372 deg
RA of node: 205.5376 deg
Eccentricity: 0.0009956
Arg of perigee: 235.9119 deg
Mean anomaly: 124.1121 deg
Mean motion: 14.32084400 rev/day
Decay rate: 8.1e-07 rev/day^2
Epoch rev: 18368
Checksum: 292
Satellite: LO-19
Catalog number: 20442
Epoch time: 12264.60701360
Element set: 493
Inclination: 098.4049 deg
RA of node: 208.0188 deg
Eccentricity: 0.0011159
Arg of perigee: 225.6503 deg
Mean anomaly: 134.3767 deg
Mean motion: 14.32300374 rev/day
Decay rate: 2.3e-07 rev/day^2
Epoch rev: 18384
Checksum: 275
Satellite: AO-27
Catalog number: 22825
Epoch time: 12264.79002903
Element set: 201
Inclination: 098.5822 deg
RA of node: 206.1492 deg
Eccentricity: 0.0008656
Arg of perigee: 005.1445 deg
Mean anomaly: 354.9831 deg
Mean motion: 14.29486675 rev/day
Decay rate: 1.40e-06 rev/day^2
Epoch rev: 99013
Checksum: 300
Satellite: IO-26
Catalog number: 22826
Epoch time: 12264.77253663
Element set: 952
Inclination: 098.5767 deg
RA of node: 206.4787 deg
Eccentricity: 0.0009170
Arg of perigee: 358.9383 deg
Mean anomaly: 001.1778 deg
Mean motion: 14.29762389 rev/day
Decay rate: 5.8e-07 rev/day^2
Epoch rev: 99026
Checksum: 355
Satellite: GO-32
Catalog number: 25397
Epoch time: 12263.67001765
Element set: 0880
Inclination: 098.3732 deg
RA of node: 237.7814 deg
Eccentricity: 0.0001924
Arg of perigee: 040.4249 deg
Mean anomaly: 319.7079 deg
Mean motion: 14.23293203 rev/day
Decay rate: 1.24e-06 rev/day^2
Epoch rev: 73746
Checksum: 305
Satellite: NO-44
Catalog number: 26931
Epoch time: 12263.54333749
Element set: 0142
Inclination: 067.0496 deg
RA of node: 237.1461 deg
Eccentricity: 0.0006418
Arg of perigee: 254.6123 deg
Mean anomaly: 105.4269 deg
Mean motion: 14.29828629 rev/day
Decay rate: -3.19e-06 rev/day^2
Epoch rev: 57273
Checksum: 312
Satellite: SO-50
Catalog number: 27607
Epoch time: 12264.72993511
Element set: 869
Inclination: 064.5601 deg
RA of node: 004.2342 deg
Eccentricity: 0.0076880
Arg of perigee: 229.4768 deg
Mean anomaly: 129.9620 deg
Mean motion: 14.72515572 rev/day
Decay rate: 6.40e-06 rev/day^2
Epoch rev: 52403
Checksum: 308
Satellite: CO-55
Catalog number: 27844
Epoch time: 12263.55300088
Element set: 0467
Inclination: 098.7064 deg
RA of node: 270.5702 deg
Eccentricity: 0.0009313
Arg of perigee: 316.5936 deg
Mean anomaly: 043.4506 deg
Mean motion: 14.21072719 rev/day
Decay rate: 1.72e-06 rev/day^2
Epoch rev: 47829
Checksum: 307
Satellite: CO-57
Catalog number: 27848
Epoch time: 12263.57333859
Element set: 416
Inclination: 098.7124 deg
RA of node: 269.9649 deg
Eccentricity: 0.0009272
Arg of perigee: 321.7165 deg
Mean anomaly: 038.3347 deg
Mean motion: 14.20818012 rev/day
Decay rate: 1.38e-06 rev/day^2
Epoch rev: 47823
Checksum: 331
Satellite: AO-51
Catalog number: 28375
Epoch time: 12263.86344721
Element set: 0370
Inclination: 098.1587 deg
RA of node: 224.7930 deg
Eccentricity: 0.0084113
Arg of perigee: 113.6187 deg
Mean anomaly: 247.3853 deg
Mean motion: 14.40987442 rev/day
Decay rate: 1.72e-06 rev/day^2
Epoch rev: 43240
Checksum: 307
Satellite: CP3
Catalog number: 31129
Epoch time: 12264.58727455
Element set: 268
Inclination: 097.8835 deg
RA of node: 266.7678 deg
Eccentricity: 0.0100658
Arg of perigee: 185.5638 deg
Mean anomaly: 174.4446 deg
Mean motion: 14.53208556 rev/day
Decay rate: 6.15e-06 rev/day^2
Epoch rev: 28783
Checksum: 349
Satellite: CO-65
Catalog number: 32785
Epoch time: 12263.83483213
Element set: 419
Inclination: 097.7892 deg
RA of node: 322.6070 deg
Eccentricity: 0.0015916
Arg of perigee: 111.1234 deg
Mean anomaly: 249.1660 deg
Mean motion: 14.83189325 rev/day
Decay rate: 5.62e-06 rev/day^2
Epoch rev: 23779
Checksum: 316
Satellite: PRISM
Catalog number: 33493
Epoch time: 12264.72952567
Element set: 88
Inclination: 098.1840 deg
RA of node: 047.6705 deg
Eccentricity: 0.0018632
Arg of perigee: 350.8744 deg
Mean anomaly: 009.2140 deg
Mean motion: 14.84331568 rev/day
Decay rate: 1.767e-05 rev/day^2
Epoch rev: 19792
Checksum: 322
Satellite: SOHLA-1
Catalog number: 33496
Epoch time: 12263.92287743
Element set: 0864
Inclination: 098.1127 deg
RA of node: 015.0758 deg
Eccentricity: 0.0007722
Arg of perigee: 098.4721 deg
Mean anomaly: 261.7360 deg
Mean motion: 14.70042847 rev/day
Decay rate: 1.13e-06 rev/day^2
Epoch rev: 19616
Checksum: 303
Satellite: SO-67
Catalog number: 35870
Epoch time: 12264.77292378
Element set: 344
Inclination: 097.2245 deg
RA of node: 297.1592 deg
Eccentricity: 0.0002249
Arg of perigee: 146.2661 deg
Mean anomaly: 324.6715 deg
Mean motion: 15.24532243 rev/day
Decay rate: 2.971e-05 rev/day^2
Epoch rev: 16717
Checksum: 323
Satellite: TISAT-1
Catalog number: 36799
Epoch time: 12264.73630149
Element set: 363
Inclination: 098.0568 deg
RA of node: 341.7541 deg
Eccentricity: 0.0013890
Arg of perigee: 219.3068 deg
Mean anomaly: 140.7156 deg
Mean motion: 14.82248082 rev/day
Decay rate: 1.173e-05 rev/day^2
Epoch rev: 11864
Checksum: 310
Satellite: STUDSAT
Catalog number: 36801
Epoch time: 12263.82809909
Element set: 0482
Inclination: 098.0630 deg
RA of node: 342.0089 deg
Eccentricity: 0.0011655
Arg of perigee: 209.6174 deg
Mean anomaly: 150.4376 deg
Mean motion: 14.85131728 rev/day
Decay rate: 3.353e-05 rev/day^2
Epoch rev: 11856
Checksum: 299
Satellite: FO-69
Catalog number: 37227
Epoch time: 12264.18928652
Element set: 0287
Inclination: 071.9681 deg
RA of node: 102.3098 deg
Eccentricity: 0.0016478
Arg of perigee: 148.6454 deg
Mean anomaly: 211.5694 deg
Mean motion: 14.77169783 rev/day
Decay rate: 3.51e-06 rev/day^2
Epoch rev: 05012
Checksum: 330
Satellite: FO-70
Catalog number: 37380
Epoch time: 12264.21088706
Element set: 0292
Inclination: 071.9712 deg
RA of node: 102.9407 deg
Eccentricity: 0.0016856
Arg of perigee: 145.1543 deg
Mean anomaly: 215.0726 deg
Mean motion: 14.76919445 rev/day
Decay rate: 2.92e-06 rev/day^2
Epoch rev: 05001
Checksum: 289
Satellite: ALMASAT-1
Catalog number: 38078
Epoch time: 12264.70048037
Element set: 581
Inclination: 069.4762 deg
RA of node: 100.4424 deg
Eccentricity: 0.0743532
Arg of perigee: 129.0715 deg
Mean anomaly: 237.9195 deg
Mean motion: 14.12368769 rev/day
Decay rate: 2.2181e-04 rev/day^2
Epoch rev: 3102
Checksum: 294
Satellite: XATCOBEO
Catalog number: 38082
Epoch time: 12264.66083395
Element set: 563
Inclination: 069.4783 deg
RA of node: 095.6446 deg
Eccentricity: 0.0702473
Arg of perigee: 126.4542 deg
Mean anomaly: 240.3952 deg
Mean motion: 14.23797052 rev/day
Decay rate: 5.8001e-04 rev/day^2
Epoch rev: 3114
Checksum: 303
/EX
SB KEPS @ AMSAT $ORB12264.W
Orbital Elements 12264.WEATHER
HR AMSAT ORBITAL ELEMENTS FOR WEATHER SATELLITES
FROM WA5QGD FORT WORTH,TX September 20, 2012
BID: ORB12264.W
TO ALL RADIO AMATEURS BT
Satellite: NOAA-10
Catalog number: 16969
Epoch time: 12264.69176688
Element set: 69
Inclination: 098.5772 deg
RA of node: 292.0188 deg
Eccentricity: 0.0011719
Arg of perigee: 319.2145 deg
Mean anomaly: 040.8157 deg
Mean motion: 14.27577169 rev/day
Decay rate: -8.0e-08 rev/day^2
Epoch rev: 35349
Checksum: 344
Satellite: NOAA-11
Catalog number: 19531
Epoch time: 12264.32339215
Element set: 61
Inclination: 098.7296 deg
RA of node: 347.4658 deg
Eccentricity: 0.0010820
Arg of perigee: 317.4446 deg
Mean anomaly: 042.5878 deg
Mean motion: 14.14979982 rev/day
Decay rate: -2.27e-06 rev/day^2
Epoch rev: 23796
Checksum: 326
